Temp
-5 -6 -7 -7 -6 -6 -5 -5 -4 -3 -2 -1 -0 -0 0 1 2 1 4 5 7 8 8 10 9 9 10 9 11 10 10 10 10 10 10 10 9 9
-6 -5 -6 -7 -6 -5 -5 -5 -4 -3 -3 -1 -1 -1 -0 0 1 1 2 3 4 6 7 8 8 8 9 9 9 10 10 10 10 10 9 8 9 10
-5 -3 -5 -7 -6 -4 -5 -4 -3 -3 -2 -2 -1 -1 0 0 -0 -1 1 1 2 2 4 6 6 7 7 8 9 9 9 9 9 9 9 9 9 9
-3 -3 -3 -6 -6 -4 -4 -4 -3 -3 -2 -2 -2 -2 -2 -3 -2 -2 -2 -2 1 0 2 5 5 4 4 6 7 7 8 8 8 8 8 8 7 7
-3 -4 -3 -4 -4 -4 -4 -4 -4 -4 -3 -3 -4 -4 -4 -4 -4 -4 -3 -6 -3 0 -0 3 4 3 1 4 4 4 5 6 6 5 5 6 6 6
-3 -4 -4 -4 -3 -4 -4 -4 -5 -5 -5 -5 -5 -5 -5 -5 -5 -6 -4 -5 -6 -5 -6 -3 2 -1 -1 1 1 2 3 4 4 5 4 4 4 4
-4 -4 -5 -5 -4 -3 -4 -4 -4 -5 -5 -5 -6 -5 -5 -6 -6 -7 -6 -5 -4 -4 -6 -4 -2 -2 -3 -2 -0 -1 1 2 3 3 3 3 4 4
-4 -4 -5 -4 -5 -5 -4 -4 -4 -4 -6 -6 -6 -7 -7 -6 -6 -6 -6 -6 -7 -6 -6 -7 -6 -5 -4 -3 -3 -3 -2 -1 0 1 2 2 2 2
-4 -4 -4 -5 -5 -5 -4 -4 -4 -4 -4 -6 -6 -6 -7 -7 -8 -7 -7 -6 -7 -7 -8 -8 -9 -8 -7 -6 -4 -4 -3 -2 -2 -2 -1 -1 -1 -1
-4 -4 -5 -5 -5 -5 -5 -5 -4 -5 -5 -6 -6 -6 -6 -6 -7 -8 -9 -8 -8 -7 -8 -10 -11 -10 -11 -8 -7 -6 -5 -4 -3 -3 -3 -3 -3 -3
-5 -5 -5 -5 -6 -6 -6 -6 -6 -6 -8 -8 -8 -8 -7 -6 -5 -8 -8 -8 -10 -7 -6 -11 -11 -11 -10 -8 -8 -7 -7 -6 -6 -5 -5 -4 -4 -4
-7 -6 -6 -6 -6 -6 -6 -6 -6 -7 -8 -7 -7 -7 -7 -7 -6 -6 -7 -9 -10 -9 -8 -12 -12 -11 -9 -11 -9 -8 -8 -7 -7 -6 -6 -5 -5 -5
-11 -9 -7 -7 -7 -7 -7 -7 -7 -7 -8 -8 -8 -8 -8 -7 -7 -8 -8 -8 -9 -9 -9 -10 -10 -12 -12 -12 -13 -10 -10 -9 -9 -8 -8 -7 -7 -7
-8 -8 -8 -8 -8 -8 -8 -9 -9 -8 -8 -8 -9 -9 -9 -9 -10 -10 -10 -10 -10 -10 -10 -9 -12 -13 -13 -12 -13 -13 -14 -13 -12 -12 -13 -13 -13 -13
-8 -8 -8 -8 -9 -9 -9 -9 -9 -9 -10 -10 -11 -11 -11 -11 -12 -13 -12 -14 -13 -12 -11 -11 -11 -14 -15 -14 -14 -15 -15 -15 -15 -15 -15 -14 -14 -14
-9 -9 -9 -9 -9 -9 -9 -9 -9 -10 -10 -11 -13 -13 -14 -14 -14 -14 -15 -15 -15 -15 -13 -12 -12 -13 -15 -15 -15 -15 -15 -15 -16 -16 -15 -15 -14 -14
-9 -10 -10 -10 -11 -10 -10 -10 -10 -11 -11 -11 -12 -15 -15 -15 -15 -15 -16 -15 -15 -15 -16 -16 -16 -15 -14 -15 -16 -16 -16 -16 -16 -16 -16 -15 -15 -15
-10 -11 -11 -11 -11 -11 -12 -12 -11 -11 -12 -12 -13 -14 -16 -16 -16 -16 -16 -16 -15 -16 -16 -16 -17 -15 -15 -16 -16 -18 -17 -17 -17 -17 -16 -16 -15 -15
-12 -12 -11 -11 -12 -12 -12 -12 -12 -12 -13 -13 -14 -14 -15 -17 -17 -17 -17 -17 -16 -16 -16 -17 -17 -17 -16 -16 -17 -18 -18 -19 -18 -18 -17 -17 -17 -16
-13 -13 -12 -12 -12 -13 -13 -13 -13 -14 -14 -14 -14 -15 -15 -18 -18 -18 -18 -18 -18 -17 -17 -17 -18 -19 -18 -19 -18 -18 -19 -20 -20 -19 -18 -18 -17 -18
-13 -13 -13 -13 -13 -13 -13 -14 -14 -14 -15 -15 -15 -15 -16 -19 -19 -19 -19 -19 -19 -18 -18 -18 -19 -20 -19 -19 -18 -18 -19 -19 -20 -20 -20 -19 -19 -18
-14 -14 -13 -14 -14 -14 -14 -15 -15 -15 -16 -16 -16 -16 -17 -19 -20 -20 -20 -20 -19 -19 -19 -19 -19 -19 -19 -19 -19 -19 -18 -19 -20 -20 -20 -21 -20 -20
-14 -14 -14 -14 -14 -15 -15 -15 -16 -16 -16 -17 -17 -17 -17 -18 -19 -21 -21 -20 -20 -20 -20 -20 -19 -19 -19 -19 -20 -19 -19 -19 -19 -19 -19 -19 -20 -21
Height
1465 1460 1455 1450 1446 1442 1440 1440 1439 1435 1431 1427 1425 1422 1420 1417 1413 1414 1403 1407 1408 1411 1411 1413 1416 1418 1420 1423 1423 1429 1432 1435 1436 1438 1443 1447 1445 1449
1465 1460 1454 1450 1445 1441 1438 1438 1437 1435 1433 1429 1426 1425 1423 1421 1418 1415 1409 1409 1409 1411 1411 1412 1414 1415 1418 1420 1422 1425 1428 1429 1429 1435 1437 1442 1442 1444
1466 1460 1454 1450 1445 1441 1438 1436 1434 1432 1430 1429 1427 1425 1424 1420 1421 1419 1416 1414 1413 1412 1414 1413 1414 1414 1416 1417 1419 1421 1423 1425 1428 1431 1433 1437 1440 1440
1466 1461 1456 1451 1446 1441 1438 1435 1433 1430 1429 1427 1427 1426 1425 1424 1423 1419 1419 1420 1417 1416 1417 1414 1415 1417 1417 1416 1416 1419 1422 1424 1427 1429 1431 1434 1437 1437
1467 1462 1458 1453 1447 1443 1440 1436 1433 1431 1429 1428 1428 1428 1427 1427 1427 1425 1420 1421 1417 1417 1420 1418 1418 1420 1421 1415 1416 1419 1421 1422 1423 1428 1430 1432 1433 1432
1469 1465 1460 1455 1450 1446 1443 1440 1437 1434 1433 1432 1432 1431 1430 1430 1428 1429 1425 1426 1424 1424 1425 1420 1421 1423 1423 1421 1419 1420 1421 1422 1425 1427 1429 1430 1430 1431
1471 1468 1464 1459 1455 1451 1447 1444 1441 1439 1437 1436 1435 1435 1434 1434 1432 1431 1431 1428 1423 1424 1429 1423 1420 1426 1424 1421 1419 1423 1423 1423 1425 1427 1428 1427 1429 1430
1473 1471 1468 1464 1459 1456 1452 1449 1445 1443 1441 1441 1439 1438 1438 1437 1437 1436 1435 1434 1435 1434 1429 1428 1428 1430 1426 1424 1426 1427 1424 1425 1425 1425 1425 1426 1427 1428
1475 1473 1470 1467 1464 1461 1458 1454 1451 1448 1446 1445 1443 1442 1442 1441 1440 1439 1439 1438 1437 1437 1437 1435 1436 1433 1432 1430 1428 1430 1428 1427 1426 1426 1425 1427 1427 1426
1476 1474 1472 1470 1467 1465 1462 1459 1456 1453 1451 1449 1448 1447 1445 1444 1443 1442 1443 1441 1441 1441 1438 1439 1440 1437 1437 1435 1432 1432 1430 1428 1427 1427 1427 1427 1427 1426
1478 1476 1474 1472 1470 1468 1466 1463 1460 1457 1456 1455 1453 1452 1450 1448 1445 1444 1444 1447 1445 1441 1440 1440 1439 1439 1439 1437 1437 1434 1432 1432 1430 1427 1427 1427 1426 1426
1478 1477 1476 1474 1473 1471 1469 1466 1464 1462 1461 1459 1458 1456 1454 1451 1449 1446 1444 1444 1443 1444 1442 1442 1442 1441 1445 1441 1438 1436 1435 1432 1430 1428 1427 1426 1425 1425
1479 1477 1477 1476 1474 1473 1471 1469 1466 1465 1463 1462 1460 1458 1456 1454 1452 1450 1449 1447 1446 1445 1444 1443 1444 1444 1444 1443 1441 1437 1435 1433 1431 1430 1428 1426 1425 1425
1479 1478 1477 1476 1474 1473 1472 1470 1468 1467 1466 1464 1463 1460 1459 1457 1455 1454 1452 1451 1449 1448 1447 1445 1444 1444 1445 1445 1443 1440 1438 1435 1433 1431 1430 1430 1428 1427
1480 1479 1478 1477 1476 1474 1473 1471 1470 1468 1466 1465 1464 1462 1461 1460 1459 1457 1456 1454 1453 1451 1449 1447 1446 1445 1446 1446 1446 1443 1440 1439 1436 1434 1433 1433 1431 1429
1479 1479 1478 1477 1477 1475 1474 1473 1471 1470 1468 1467 1466 1464 1464 1462 1460 1459 1459 1458 1457 1455 1451 1449 1448 1446 1447 1447 1446 1444 1441 1441 1438 1435 1433 1433 1432 1430
1479 1479 1478 1478 1477 1476 1475 1473 1472 1471 1470 1468 1467 1466 1465 1464 1462 1460 1460 1460 1459 1458 1455 1452 1449 1447 1446 1446 1446 1444 1442 1441 1438 1435 1434 1433 1432 1431
1478 1478 1478 1477 1477 1476 1475 1473 1472 1471 1470 1468 1467 1466 1466 1465 1464 1462 1461 1460 1459 1458 1456 1454 1452 1452 1451 1446 1445 1444 1443 1441 1438 1436 1435 1433 1431 1430
1477 1477 1477 1476 1476 1475 1474 1473 1472 1471 1469 1468 1467 1466 1465 1465 1464 1463 1462 1461 1460 1459 1457 1455 1452 1450 1450 1449 1449 1442 1441 1439 1437 1436 1434 1433 1430 1428
1475 1475 1475 1474 1474 1473 1473 1472 1472 1470 1469 1468 1467 1465 1464 1464 1464 1463 1462 1460 1460 1459 1458 1456 1454 1450 1450 1449 1447 1446 1440 1438 1436 1434 1432 1429 1427 1424
1472 1473 1472 1472 1472 1471 1471 1470 1470 1469 1468 1467 1466 1465 1463 1463 1463 1461 1461 1459 1458 1459 1458 1456 1454 1449 1450 1449 1448 1445 1442 1438 1435 1432 1430 1427 1424 1421
1470 1470 1470 1470 1470 1469 1469 1468 1468 1467 1466 1465 1465 1463 1462 1461 1461 1460 1460 1459 1458 1457 1456 1455 1453 1451 1450 1448 1446 1443 1441 1438 1435 1432 1429 1424 1422 1416
1467 1468 1468 1468 1468 1467 1467 1466 1466 1465 1464 1464 1463 1462 1460 1459 1458 1458 1458 1457 1456 1454 1454 1452 1451 1450 1448 1446 1443 1440 1437 1434 1431 1428 1426 1423 1418 1413
Wind_Speed
20 21 19 17 15 11 10 12 12 11 18 11 1 12 16 17 14 12 18 10 6 10 16 17 18 21 24 26 24 30 32 32 32 34 34 38 31 26
19 21 21 18 15 12 8 10 10 10 12 11 4 5 7 8 8 13 16 12 13 8 5 5 8 15 19 21 22 23 27 28 28 30 27 21 24 24
19 21 23 20 17 14 8 8 9 9 11 7 5 5 2 4 7 13 13 16 16 18 9 8 7 5 9 14 15 16 18 20 22 22 20 17 20 25
19 21 23 22 19 17 12 9 8 4 3 9 8 6 6 7 11 15 19 18 14 16 12 5 6 9 11 7 9 11 13 15 14 16 17 20 20 18
19 21 23 24 23 20 17 13 10 5 5 9 8 7 9 11 10 12 19 19 18 11 15 7 7 7 14 10 7 9 7 8 7 5 7 12 15 18
17 20 22 24 25 22 19 16 13 11 9 9 9 8 7 8 9 10 10 10 17 17 16 18 9 12 14 12 14 12 9 6 4 1 0 1 2 4
15 17 19 23 24 24 21 18 16 14 12 11 12 9 10 9 9 12 13 12 12 13 12 14 13 9 12 13 12 10 8 7 5 4 2 2 4 5
13 15 17 19 21 22 21 21 20 17 18 16 17 17 12 11 8 4 3 3 3 10 16 17 13 14 14 16 14 12 11 8 5 3 2 3 4 4
12 14 15 17 19 19 20 20 21 23 22 20 18 16 13 15 14 12 12 7 8 8 10 11 12 14 17 17 15 14 12 11 9 8 6 4 4 5
11 12 14 16 17 17 18 19 21 23 24 23 22 21 17 11 8 8 9 11 10 7 11 6 7 9 12 16 17 15 14 13 11 10 8 7 6 6
11 11 12 13 16 15 16 18 19 22 21 20 19 17 16 15 12 9 8 3 8 12 10 9 9 6 7 11 14 14 13 13 12 12 11 10 9 7
9 10 11 12 13 13 13 15 16 19 17 16 15 15 16 16 16 16 15 15 6 6 11 11 10 6 2 9 12 13 11 11 12 12 12 11 10 9
5 7 9 10 11 12 12 13 15 15 14 14 14 15 15 17 18 19 18 17 16 15 14 11 11 8 5 4 7 15 13 13 15 14 14 14 14 13
3 4 7 10 11 12 12 14 12 12 12 12 13 14 16 16 17 17 17 18 17 16 15 13 10 11 9 6 8 14 13 13 16 16 15 15 16 17
2 4 5 7 8 9 11 11 11 12 12 12 13 13 14 14 13 13 14 14 15 14 15 13 12 10 9 8 8 12 13 8 16 16 15 14 14 14
2 2 3 4 4 6 8 8 9 10 11 11 11 11 11 11 12 12 10 10 9 11 14 13 12 11 8 8 10 12 13 11 15 16 15 13 12 13
2 1 2 3 4 5 6 7 8 9 9 9 9 9 9 9 10 11 10 9 9 10 11 13 14 12 12 10 8 12 12 13 14 16 15 13 11 12
3 2 1 0 2 3 4 6 6 6 6 7 8 7 8 8 8 9 10 9 9 10 11 12 12 9 6 13 13 12 12 13 15 15 14 14 14 13
4 4 3 2 1 2 3 4 5 6 6 7 7 7 7 8 9 8 9 8 9 9 10 12 13 12 11 10 10 19 15 14 15 14 14 15 16 16
5 4 4 3 2 2 3 3 4 5 5 5 6 7 7 6 6 7 7 7 7 8 8 9 11 11 10 11 12 13 20 16 15 16 16 17 15 17
6 5 5 4 4 4 4 5 5 5 5 5 6 7 7 6 6 6 6 9 9 7 8 9 10 15 9 11 10 12 12 17 19 14 16 17 16 18
7 7 6 6 6 6 5 5 5 5 5 6 6 7 7 5 5 6 6 6 7 7 8 9 10 10 10 11 13 14 15 16 15 14 15 16 17 20
8 8 8 7 7 6 6 5 5 5 5 6 6 7 7 6 6 5 6 6 7 7 8 10 11 11 12 13 15 16 17 19 19 18 16 16 20 22
Wind_Direction
356 2 353 344 333 322 308 300 301 308 316 341 53 37 15 8 37 47 89 97 136 212 212 212 231 234 231 234 230 231 236 236 234 238 234 246 264 293
1 6 6 357 350 343 326 314 296 275 274 309 92 97 43 35 40 55 62 82 89 88 125 180 221 225 222 217 215 217 218 233 233 238 223 238 253 277
10 13 15 10 7 357 346 325 313 284 270 246 200 147 119 95 104 91 92 80 95 91 101 104 116 162 201 202 208 216 215 219 225 236 229 234 246 244
20 21 23 22 21 15 5 359 339 331 196 199 172 151 130 135 136 118 101 97 94 89 96 85 64 97 101 158 173 187 199 200 204 221 229 237 234 234
30 29 31 30 31 31 22 25 24 39 167 159 135 136 124 124 119 121 118 100 96 98 93 102 143 118 103 111 116 118 147 179 187 175 202 228 247 236
33 33 36 38 38 38 39 40 46 64 87 103 107 109 114 106 112 94 91 91 100 94 75 93 91 89 96 111 108 103 109 117 108 199 243 294 308 288
38 39 37 44 45 44 46 49 57 63 77 84 78 82 82 82 83 81 70 65 64 79 66 79 83 84 69 79 94 92 105 124 139 159 195 266 270 270
46 45 45 44 45 47 52 57 58 68 68 72 75 69 73 79 59 71 66 43 44 58 57 54 59 64 59 58 64 63 66 68 69 49 8 332 312 297
52 53 50 51 54 48 48 57 63 66 65 67 68 68 71 69 69 59 60 74 93 79 71 48 38 49 49 49 46 44 52 57 62 61 52 32 12 10
58 56 54 53 53 54 55 56 58 61 61 60 60 58 55 57 77 79 55 64 70 83 98 50 71 61 48 42 39 35 35 36 38 45 46 40 30 13
61 59 58 54 51 49 53 56 58 59 58 57 60 60 55 53 59 87 97 115 59 56 63 71 35 61 49 41 39 34 35 34 36 34 32 31 25 20
56 63 61 58 54 50 52 56 57 59 58 57 58 60 61 63 62 61 71 64 88 46 49 63 44 61 7 12 25 29 35 37 36 28 21 18 19 19
68 49 59 60 56 52 51 55 55 54 50 49 50 52 52 50 52 56 59 58 59 57 45 67 43 45 50 13 5 16 22 26 27 25 24 20 16 14
75 53 44 42 40 35 39 44 46 50 49 46 45 45 44 44 45 44 44 46 47 46 41 42 42 42 35 32 15 5 19 15 19 17 18 18 18 22
86 72 56 42 36 32 32 32 32 36 38 38 40 39 38 40 41 39 34 37 27 36 36 36 40 41 38 37 23 11 18 13 13 11 14 12 12 16
148 82 68 55 41 30 26 24 27 31 34 36 35 33 32 31 32 37 37 37 34 26 22 30 34 41 41 31 21 13 12 10 1 2 9 7 5 6
202 151 40 31 24 22 18 20 22 21 22 26 31 31 28 28 25 28 31 32 32 27 20 21 25 14 31 41 23 14 6 4 358 355 1 357 354 351
206 206 222 305 7 9 11 11 8 6 15 22 23 26 25 21 25 20 25 26 24 18 17 18 20 35 10 354 350 9 7 358 351 352 352 344 339 340
195 213 227 243 289 329 345 349 345 353 1 8 10 10 19 15 21 17 17 20 14 13 10 9 12 16 12 1 349 344 351 352 346 346 342 334 327 323
206 219 236 252 272 294 307 318 327 340 351 357 358 360 6 13 12 11 4 10 12 5 3 1 360 4 3 343 330 336 330 341 340 334 330 325 319 315
225 228 239 252 266 278 289 298 309 324 336 345 349 351 354 6 355 358 354 353 21 349 350 348 340 354 342 335 329 322 327 323 326 322 321 322 320 320
228 232 246 253 264 274 285 293 304 320 330 336 335 337 340 349 342 345 341 344 337 335 331 331 332 335 333 329 322 322 324 316 330 319 320 314 316 310
233 238 250 258 263 267 275 279 282 293 304 313 319 325 330 332 328 329 328 328 327 326 327 325 327 327 322 322 319 320 320 325 325 325 321 313 310 310